カタログに戻る

OPS 7329

運用中ナビゲーションMEO
NORAD 4510·PAYLOAD·🇺🇸 United States

打ち上げ Sep 1, 1970 から Cape Canaveral Space Force Station

Loading…

次のパス (今後24時間)

TLE

最新Source: Space-Track

元期: Sep 14, 2026, 10:50 UTC

1 04510U 70069A   26257.45169959  .00000073  00000-0  00000-0 0  9992
2 04510  10.6936 154.5442 1010094 112.6519 105.1761  1.00183117 25686

AllMySatでOPS 7329をリアルタイム追跡

Download on the App Store